Location: Newark
(45.5167°N, 11.1667°E)
Time: 01:57:45
(UTC+00:00)

Vanguard 2 Rocket - All Passes

Search period start: 09 December 2019 00:00
Search period end: 19 December 2019 00:00
Orbit: 554 x 3326 km, 32.9° (Epoch: 08 December)

Date Brightness Start Highest point End Pass type
(mag) Time Alt. Az. Time Alt. Az. Time Alt. Az.
09 Dec - 14:42:28 10° S 14:49:41 14° SSE 14:55:39 10° ESE daylight
09 Dec - 16:53:03 10° SW 17:04:12 28° SSE 17:11:31 10° ESE visible
09 Dec - 19:08:34 10° WSW 19:17:51 33° S 19:23:37 10° ESE visible
09 Dec - 21:25:04 10° WSW 21:30:11 20° SSW 21:33:57 10° SSE visible
10 Dec - 13:46:36 10° SSE 13:49:09 10° SE 13:51:32 10° SE daylight
10 Dec - 15:52:10 10° SSW 16:03:55 26° SSE 16:12:03 10° ESE visible
10 Dec - 18:07:01 10° SW 18:18:06 35° S 18:24:55 10° ESE visible
10 Dec - 20:23:38 10° WSW 20:31:03 28° SSW 20:35:56 10° SE visible
11 Dec - 14:51:49 10° SSW 15:03:26 22° SSE 15:12:02 10° ESE daylight
11 Dec - 17:05:25 10° SW 17:18:04 35° S 17:25:58 10° ESE visible
11 Dec - 19:22:01 10° WSW 19:31:39 34° S 19:37:36 10° SE visible
11 Dec - 21:39:29 10° WSW 21:43:42 16° SSW 21:47:00 10° S visible
12 Dec - 13:52:24 10° S 14:02:46 18° SSE 14:11:09 10° ESE daylight
12 Dec - 16:03:58 10° SW 16:17:44 33° SSE 16:26:43 10° ESE visible
12 Dec - 18:20:12 10° WSW 18:31:57 39° S 18:39:00 10° ESE visible
12 Dec - 20:37:33 10° WSW 20:44:40 25° SSW 20:49:29 10° SSE visible
13 Dec - 12:54:45 10° SSE 13:02:03 13° SE 13:08:32 10° ESE daylight
13 Dec - 15:02:53 10° SSW 15:17:08 30° SSE 15:27:05 10° ESE daylight
13 Dec - 17:18:16 10° WSW 17:31:54 41° S 17:40:09 10° ESE visible
13 Dec - 19:35:40 10° WSW 19:45:21 33° SSW 19:51:22 10° SE visible
13 Dec - 21:54:57 10° WSW 21:57:02 11° SW 21:58:53 10° SSW visible
14 Dec - 14:02:26 10° SSW 14:16:20 26° SSE 14:26:53 10° ESE daylight
14 Dec - 16:16:25 10° SW 16:31:30 40° S 16:41:02 10° ESE visible
14 Dec - 18:33:37 10° WSW 18:45:42 40° S 18:52:55 10° SE visible
14 Dec - 20:51:47 10° WSW 20:58:06 20° SW 21:02:37 10° SSE visible
15 Dec - 13:02:55 10° S 13:15:28 21° SE 13:25:51 10° ESE daylight
15 Dec - 15:14:51 10° SW 15:30:49 38° SSE 15:41:34 10° ESE daylight
15 Dec - 17:31:27 10° WSW 17:45:40 44° S 17:54:10 10° ESE visible
15 Dec - 19:49:31 10° W 19:58:54 29° SSW 20:04:54 10° SSE visible
16 Dec - 12:04:58 10° S 12:14:37 16° SE 12:23:20 10° ESE daylight
16 Dec - 14:13:47 10° SSW 14:29:53 34° SSE 14:41:41 10° E daylight
16 Dec - 16:29:19 10° WSW 16:45:15 45° S 16:55:09 10° ESE visible
16 Dec - 18:47:14 10° WSW 18:59:20 38° SSW 19:06:40 10° SE visible
16 Dec - 21:06:36 10° WSW 21:11:19 15° SW 21:15:02 10° S visible
17 Dec - 13:13:26 10° SSW 13:28:50 29° SSE 13:41:13 10° E daylight
17 Dec - 15:27:24 10° SW 15:44:28 44° S 15:55:47 10° ESE daylight
17 Dec - 17:44:53 10° WSW 17:59:21 44° S 18:08:03 10° ESE visible
17 Dec - 20:03:37 10° W 20:12:15 24° SW 20:18:05 10° SSE visible
18 Dec - 12:14:02 10° S 12:27:48 23° SE 12:39:54 10° E daylight
18 Dec - 14:25:54 10° SW 14:43:26 41° SSE 14:56:03 10° E daylight
18 Dec - 16:42:32 10° WSW 16:58:56 48° S 17:09:06 10° ESE visible
18 Dec - 19:01:01 10° W 19:12:48 34° SSW 19:20:10 10° SE visible
